STARLINK-37087, 68250

Orbit data source: Space-Track

STARLINK-37087, 68250 is a payload satellite owned by SpaceX/Seattle (US) in LEO that was launched on Tue, 17 Mar 2026 UTC via an FALCON 9 launch vehicle from the Air Force Eastern Test Range (AFETR). Payload-class satellites include a variety of spacecraft equipped with specific instruments for various scientific and technological missions. These include communications satellites like Starlink; space stations such as the ISS; scientific satellites like the Hubble; Earth observation satellites from companies like Planet Labs, Umbra, and HawkEye 360; GPS; miniature CubeSats for education and research; and military/defense satellites.

Loading next visibility...
Identifier
68250, 2026-054U
Orbit
LEO
Country
Flag of USUS
Related business
Manufacturer
SpaceX/Seattle
Mission
Operational spacecraft
Bus & Motor
STARLINK V2MO, Unknown motor
Mass
575 kg wet, ~530 kg dry
Launch date (UTC)
2026-03-17 (2 months ago)
Launch vehicle
FALCON 9
Launch site
Air Force Eastern Test Range (AFETR)
Object type
Payload
Rocket body
Debris
Shape & HBR
Unknown shape, 17.7 m
Radar Cross Section
RCS unknown

Expand to show TLE details & history
Last TLE update: 8 hours ago

TLE from 8 hours ago
0 STARLINK-37087
1 68250U 26054U   26145.42417573  .00042190  00000-0  97262-3 0  9994
2 68250  53.1584 298.1019 0002202 114.7945 245.3291 15.42190043 10776
Epoch: 2026-05-25T10:10Z
TLE epoch observation values (Epoch: 2026-05-25T10:10:48.783Z)
Latitude
0.00006°
Longitude
-97.61348°
Altitude
441.178 km
Speed
7.648 km/s
True Right ascension
19h 52m 24s
True Declination
0° 00' 00"
Sunlit
Object was in full shadow at epoch
Visualization orbit readout
Latitude
Unknown
Longitude
Unknown
Altitude
Unknown
Speed
Unknown
Apparent Right ascension
Unknown
Apparent Declination
Unknown
Sunlit
N/A
Visualization observer readout
Local Sidereal Time
03:53:18
Azimuth
Unknown
Elevation
Unknown
Doppler factor
Unknown
Orbital elements
Apogee altitude
441.406 km
Perigee altitude
438.404 km
Semi-major axis
6,818.042 km
Eccentricity
0.00022
Inclination
53.1584°
RAAN
298.1019°
Arg. of periapsis
114.7945°
True anomaly
245.30617°
Mean anomaly
245.3291°
Eccentric anomaly
245.31764°
Mean motion
3.85526 °/min
Orbital period
93.38 mins
BSTAR
0.00097262
Loading maneuver chart data...
Computing Atmospheric mass density...
Loading historical data...
Loading historical data...
Loading historical data...
Loading historical data...
Loading historical data...
Loading historical data...
Loading historical data...

Documentation

Showing up to 5 results
|